Regional Weather Roundup
Issued by NWS Newport/Morehead, NC

Current Version | Previous Version | Graphics & Text | Print | Product List | Glossary Off
Versions: 1 2 3 4 5 6 7 8 9 10 11 12 13 14 15 16 17 18 19 20 21 22 23 24 25 26 27 28 29 30 31 32 33 34 35 36 37 38 39 40 41 42 43 44 45 46 47 48 49 50

000
ASUS42 KMHX 221014
RWRMHX
WEATHER ROUNDUP FOR EASTERN NORTH CAROLINA
NATIONAL WEATHER SERVICE NEWPORT/MOREHEAD CITY NC
500 AM EST MON JAN 22 2018

NOTE: "FAIR" INDICATES FEW OR NO CLOUDS BELOW 12,000 FEET
WITH NO SIGNIFICANT WEATHER AND/OR OBSTRUCTIONS TO VISIBILITY

NCZ015>017-031-032-045>047-102-103-221100-
NORTH COAST

CITY           SKY/WX    TMP DP  RH WIND       PRES   REMARKS
EDENTON        FAIR      39  37  93 CALM      30.21S
ELIZABETH CITY FAIR      38  38 100 SW3       30.21R
KITTY HAWK     FAIR      47  37  69 CALM      30.20R
MANTEO         FAIR      38  35  89 CALM      30.22R

$$

NCZ045>047-081-094-103-104-221100-
CENTRAL COAST

CITY           SKY/WX    TMP DP  RH WIND       PRES   REMARKS
FRISCO         NOT AVBL

$$

NCZ095-097-098-100-101-221100-
SOUTHERN COAST

CITY           SKY/WX    TMP DP  RH WIND       PRES   REMARKS
BEAUFORT       FAIR      38  37  97 CALM      30.21F
CEDAR ISLAND   NOT AVBL
JACKSONVILLE   FAIR      37  36  96 CALM      30.20F
PINEY ISLAND   NOT AVBL
WILMINGTON     FAIR      37  36  96 CALM      30.21S


$$

NCZ011>013-027>030-043-044-078>080-089-090>093-098-221100-
COASTAL PLAIN

CITY           SKY/WX    TMP DP  RH WIND       PRES   REMARKS
AHOSKIE        FAIR      36  35  99 CALM      30.19F
CLINTON        FAIR      38  38 100 CALM      30.20F
ELIZABETHTOWN  NOT AVBL
GOLDSBORO      FAIR      37  35  92 CALM      30.18F
GREENVILLE     FAIR      37  37 100 CALM      30.21S
HAVELOCK       NOT AVBL
KENANSVILLE    FAIR      34  34 100 CALM      30.20S
KINSTON        NOT AVBL
NEW BERN       FAIR      35  34  96 CALM      30.21F
RICHLANDS      FAIR      35  34  96 CALM      30.21F
ROCKY MOUNT    NOT AVBL
WASHINGTON     FAIR      37  35  94 CALM      30.20F
WHITEVILLE     FAIR      37  36  93 CALM      30.19F

$$

AMZ130-135-150-152-154-156-158-170-250-252-270-ANZ085-086-088-633-658-670-221100-
MARINE OBSERVATIONS

STATION/POSITION TIME  TEMP    WIND        PRES    WAVE   SWELL
                       AIR SEA DIR/SP/G            HT/PER HT/PER
                 (UTC) (F)     (DEG/KT/KT) (MB)    (FT/S) (FT/S)
CHESAPEAKE LIGHT NOT AVBL
64 E VA BEACH    0950   55 58  280/  4/  4 1023.2    1/11   2/11
DUCK             0942   51 40  210/  8/  9 1022.4
2 E DUCK         1000      40                N/A     1/11
OREGON INLET     0942   43 43  200/  2/  2 1022.9
13E OREGON INLT  0948      41                N/A     1/10   2/10
HATTERAS CG      0942   47 51   30/  1/  2 1022.8
DIAMOND BUOY     1000   61 73  290/  4/  6 1023.3
CAPE LOOKOUT     1000             CALM     1023.0
BEAUFORT LAB     0942   43 47   10/  1/  2 1023.0
30 SE NEW RVR IN 0908   55 59  340/  4/  4 1023.8
30 SE NEW RVR IN 1000      58                N/A     1/10
27 SE WRIGHTSVLE 0908   56 58   10/  4/  6 1023.0
5 SE WRIGHTSVLE  0908   47 46   30/  2/  4 1022.9
225 S CAPE HAT   0950   66 70   70/  4/  4 1023.3    2/10   2/10
41 SE CHARLESTON 1000   67 70  220/  4/  6 1021.8

$$



USA.gov is the U.S. government's official web portal to all federal, state and local government web resources and services.